FW6511 Weather Reports


Display with metric or nautical units.
time (UTC)temp
F
wind
direction
speed
MPH
gust
MPH
rain 1hr
in
rain 24hr
in
rain mn
in
humidity
%
barometer
mb
20260507222100 50 321 1.0 3.0 0.00 0.00 0.00 70 1012.2
20260507221057 50 166 0.0 2.0 0.00 0.00 0.00 70 1012.2
20260507220100 51 248 1.0 2.0 0.00 0.00 0.00 70 1012.1
20260507215056 51 242 1.0 5.0 0.00 0.00 0.00 70 1012.1
20260507214200 51 108 1.0 5.0 0.00 0.00 0.00 69 1012.2
20260507213036 52 214 1.0 5.0 0.00 0.00 0.00 69 1012.2
20260507212201 52 199 2.0 5.0 0.00 0.00 0.00 69 1012.2
20260507211136 53 187 1.0 5.0 0.00 0.00 0.00 67 1012.1
20260507210120 53 206 1.0 4.0 0.00 0.00 0.00 66 1012.1
20260507205037 53 176 4.0 11.0 0.00 0.00 0.00 66 1012.0
20260507204101 53 213 3.0 7.0 0.00 0.00 0.00 65 1012.0
20260507203056 53 168 3.0 8.0 0.00 0.00 0.00 65 1012.0
20260507202201 54 195 3.0 8.0 0.00 0.00 0.00 65 1011.8
20260507201117 54 187 4.0 10.0 0.00 0.00 0.00 65 1011.7
20260507200120 54 226 4.0 9.0 0.00 0.00 0.00 64 1011.6
20260507195037 54 194 4.0 8.0 0.00 0.00 0.00 64 1011.5
20260507194100 54 197 4.0 9.0 0.00 0.00 0.00 64 1011.5
20260507193056 54 170 4.0 9.0 0.00 0.00 0.00 63 1011.3
20260507192121 55 187 4.0 8.0 0.00 0.00 0.00 60 1011.3
20260507191036 55 197 5.0 11.0 0.00 0.00 0.00 59 1011.3
20260507190101 55 217 4.0 11.0 0.00 0.00 0.00 59 1011.3
20260507185037 55 179 4.0 11.0 0.00 0.00 0.00 59 1011.3
20260507184141 55 194 4.0 8.0 0.00 0.00 0.00 59 1011.3
20260507183037 55 234 3.0 8.0 0.00 0.00 0.00 59 1011.3
20260507182241 55 197 4.0 9.0 0.00 0.00 0.00 59 1011.2
20260507181117 55 206 3.0 6.0 0.00 0.00 0.00 59 1011.2
20260507180100 55 219 2.0 5.0 0.00 0.00 0.00 60 1011.2
20260507175037 55 168 2.0 8.0 0.00 0.00 0.00 61 1011.2
20260507174140 56 221 1.0 2.0 0.00 0.00 0.00 60 1011.2
20260507173037 56 191 2.0 5.0 0.00 0.00 0.00 60 1011.3
20260507172101 56 245 2.0 7.0 0.00 0.00 0.00 62 1011.2
20260507171056 55 211 2.0 4.0 0.00 0.00 0.00 62 1011.3
20260507170101 55 238 1.0 4.0 0.00 0.00 0.00 62 1011.3
20260507165057 54 193 2.0 5.0 0.00 0.00 0.00 66 1011.4
20260507164101 54 244 1.0 4.0 0.00 0.00 0.00 67 1011.4
20260507163117 54 212 2.0 5.0 0.00 0.00 0.00 67 1011.6
20260507162121 54 221 4.0 7.0 0.00 0.00 0.00 66 1011.6
20260507161037 54 214 3.0 7.0 0.00 0.00 0.00 65 1011.7
20260507160101 54 185 4.0 8.0 0.00 0.00 0.00 64 1011.7
20260507155057 54 224 4.0 8.0 0.00 0.00 0.00 60 1011.7
20260507154101 56 232 7.0 16.0 0.00 0.00 0.00 56 1011.8
20260507153037 57 189 5.0 14.0 0.00 0.00 0.00 55 1011.5
20260507152201 57 182 5.0 11.0 0.00 0.00 0.00 56 1011.5
20260507151036 57 210 5.0 10.0 0.00 0.00 0.00 57 1011.6
20260507150101 57 246 5.0 11.0 0.00 0.00 0.00 57 1011.7
20260507145057 57 201 5.0 11.0 0.00 0.00 0.00 57 1011.7
20260507144141 56 234 6.0 14.0 0.00 0.00 0.00 57 1011.8
20260507143037 57 198 6.0 12.0 0.00 0.00 0.00 57 1011.8
20260507142121 57 263 5.0 9.0 0.00 0.00 0.00 58 1011.9
20260507141037 57 157 5.0 11.0 0.00 0.00 0.00 59 1012.0
20260507140121 56 171 5.0 10.0 0.00 0.00 0.00 59 1012.0
20260507135037 56 194 5.0 9.0 0.00 0.00 0.00 59 1012.1
20260507134101 56 132 5.0 8.0 0.00 0.00 0.00 60 1012.1
20260507133037 55 209 4.0 10.0 0.00 0.00 0.00 60 1012.1
20260507132101 55 176 6.0 11.0 0.00 0.00 0.00 60 1012.1
20260507131057 55 174 5.0 12.0 0.00 0.00 0.00 60 1012.2
20260507130201 54 168 5.0 9.0 0.00 0.00 0.00 63 1012.2
20260507125037 54 168 5.0 10.0 0.00 0.00 0.00 63 1012.3
20260507124101 54 169 6.0 11.0 0.00 0.00 0.00 63 1012.4
20260507123037 54 164 4.0 8.0 0.00 0.00 0.00 64 1012.5
20260507122101 53 158 3.0 6.0 0.00 0.00 0.00 64 1012.6
20260507121037 53 206 4.0 8.0 0.00 0.00 0.00 64 1012.6
20260507120141 52 192 4.0 8.0 0.00 0.00 0.00 64 1012.7
20260507115117 52 166 3.0 6.0 0.00 0.00 0.00 63 1012.7
20260507114101 52 163 4.0 9.0 0.00 0.00 0.00 62 1012.7
20260507113037 53 193 5.0 10.0 0.00 0.00 0.00 62 1012.8
20260507112121 53 173 4.0 7.0 0.00 0.00 0.00 63 1012.8
20260507111057 54 189 4.0 8.0 0.00 0.00 0.00 63 1012.8
20260507105057 54 179 3.0 9.0 0.00 0.00 0.00 63 1012.8
20260507104101 54 164 4.0 8.0 0.00 0.00 0.00 61 1012.8
20260507103117 55 202 3.0 7.0 0.00 0.00 0.00 58 1012.8
20260507102101 55 161 3.0 8.0 0.00 0.00 0.00 58 1012.7
20260507101037 55 202 3.0 8.0 0.00 0.00 0.00 57 1012.7
20260507095037 54 120 2.0 8.0 0.00 0.00 0.00 62 1012.6
20260507094121 53 3 3.0 5.0 0.00 0.00 0.00 62 1012.6
20260507093057 53 356 3.0 6.0 0.00 0.00 0.00 61 1012.6
20260507092101 53 14 3.0 6.0 0.00 0.00 0.00 61 1012.7
20260507091137 53 172 3.0 5.0 0.00 0.00 0.00 61 1012.7
20260507085117 53 280 2.0 5.0 0.00 0.00 0.00 62 1012.8
20260507084101 53 233 3.0 7.0 0.00 0.00 0.00 61 1012.8
20260507083117 53 4 3.0 5.0 0.00 0.00 0.00 63 1012.8
20260507082121 52 1 3.0 6.0 0.00 0.00 0.00 64 1012.8
20260507081037 51 10 3.0 6.0 0.00 0.00 0.00 64 1012.8
20260507075057 51 42 3.0 6.0 0.00 0.00 0.00 64 1013.0
20260507074121 51 349 2.0 5.0 0.00 0.00 0.00 65 1013.0
20260507073037 50 38 2.0 7.0 0.00 0.00 0.00 64 1013.0
20260507072101 50 340 2.0 5.0 0.00 0.00 0.00 66 1013.0
20260507071057 49 191 3.0 6.0 0.00 0.00 0.00 67 1012.9
20260507070101 49 211 2.0 6.0 0.00 0.00 0.00 69 1012.9
20260507065137 49 145 1.0 5.0 0.00 0.00 0.00 70 1012.9
20260507064121 48 345 0.0 2.0 0.00 0.00 0.00 70 1013.0
20260507063117 48 201 1.0 3.0 0.00 0.00 0.00 70 1013.0
20260507062222 47 309 1.0 2.0 0.00 0.00 0.00 70 1013.0
20260507061037 47 4 0.0 2.0 0.00 0.00 0.00 71 1013.0
20260507055037 46 0.0 1.0 0.00 0.00 0.00 72 1013.0
20260507054101 45 0.0 1.0 0.00 0.00 0.00 74 1013.0
20260507053037 45 0.0 1.0 0.00 0.00 0.00 76 1013.0
20260507052142 45 0.0 1.0 0.00 0.00 0.00 76 1013.1
20260507051117 45 0.0 0.0 0.00 0.00 0.00 75 1013.0
20260507050141 44 0.0 0.0 0.00 0.00 0.00 75 1013.0
20260507044122 45 180 0.0 1.0 0.00 0.00 0.00 74 1013.0
20260507043057 45 0.0 1.0 0.00 0.00 0.00 74 1013.1
20260507042101 45 0 0.0 2.0 0.00 0.00 0.00 74 1013.0
20260507041037 45 0 0.0 2.0 0.00 0.00 0.00 74 1013.0
20260507040121 45 0 0.0 2.0 0.00 0.00 0.00 74 1013.0
20260507035058 45 357 1.0 2.0 0.00 0.00 0.00 74 1013.0
20260507034201 45 354 1.0 2.0 0.00 0.00 0.00 73 1013.1
20260507033057 45 0 0.0 2.0 0.00 0.00 0.00 73 1013.2
20260507032102 45 338 0.0 2.0 0.00 0.00 0.00 73 1013.3
20260507031037 45 0 0.0 2.0 0.00 0.00 0.00 73 1013.3
20260507030121 45 4 0.0 2.0 0.00 0.00 0.00 73 1013.3
20260507025038 45 15 1.0 2.0 0.00 0.00 0.00 73 1013.4
20260507024122 45 24 1.0 2.0 0.00 0.00 0.00 72 1013.4
20260507023037 45 354 0.0 2.0 0.00 0.00 0.00 72 1013.4
20260507022101 45 0 0.0 2.0 0.00 0.00 0.00 72 1013.4
20260507021138 45 3 1.0 2.0 0.00 0.00 0.00 72 1013.4
20260507020202 45 343 0.0 2.0 0.00 0.00 0.00 72 1013.5
20260507015037 45 349 0.0 2.0 0.00 0.00 0.00 71 1013.5
20260507014141 45 0 1.0 2.0 0.00 0.00 0.00 71 1013.5
20260507013057 45 3 1.0 2.0 0.00 0.00 0.00 71 1013.6
20260507012102 45 0 1.0 2.0 0.00 0.00 0.00 71 1013.7
20260507010141 45 10 1.0 2.0 0.00 0.00 0.00 68 1013.7
20260507005118 46 180 1.0 3.0 0.00 0.00 0.00 65 1013.8
20260507004102 46 222 1.0 3.0 0.00 0.00 0.00 65 1013.9
20260507003037 46 294 1.0 3.0 0.00 0.00 0.00 64 1014.0
20260507002142 46 18 1.0 2.0 0.00 0.00 0.00 64 1014.0
20260507001058 46 249 1.0 5.0 0.00 0.00 0.00 63 1014.0
20260507000101 46 95 2.0 5.0 0.00 0.00 0.00 63 1014.1
20260506235118 46 210 2.0 5.0 0.00 0.00 0.00 63 1014.2
20260506234101 46 174 2.0 3.0 0.00 0.00 0.00 63 1014.3
20260506233118 47 331 1.0 5.0 0.00 0.00 0.00 63 1014.4
20260506232102 47 217 1.0 4.0 0.00 0.00 0.00 63 1014.4
20260506231158 47 211 1.0 2.0 0.00 0.00 0.00 63 1014.3
20260506230122 47 359 1.0 4.0 0.00 0.00 0.00 63 1014.3
20260506225038 47 284 1.0 3.0 0.00 0.00 0.00 63 1014.4
20260506224102 47 0 1.0 4.0 0.00 0.00 0.00 62 1014.4
20260506223118 47 0 2.0 4.0 0.00 0.00 0.00 62 1014.4